Regional Weather Roundup
Issued by NWS Wakefield, VA

Home | Current Version | Previous Version | Text Only | Print | Product List | Glossary Off
Versions: 1 2 3 4 5 6 7 8 9 10 11 12 13 14 15 16 17 18 19 20 21 22 23 24 25 26

000
ASUS41 KAKQ 231715
RWRAKQ

REGIONAL WEATHER ROUNDUP
NATIONAL WEATHER SERVICE WAKEFIELD VA
100 PM EDT MON APR 23 2018

Note: "fair" indicates few or no clouds below 12,000 feet with no
significant weather and/or obstructions to visibility. * = Denotes
station may not report precipitation (e.g., rain,snow,etc.),
thunder or fog.

VAZ042-051-052>054-056-231800-
NORTHERN VIRGINIA

CITY           SKY/WX    TMP DP  RH WIND       PRES   REMARKS
WASH NATIONAL  CLOUDY    67  43  41 S10       30.40F
DULLES         PTSUNNY   67  42  40 S13       30.39F
FORT BELVOIR   FAIR      68  44  40 S9G16     30.40F
QUANTICO       PTSUNNY   65  47  52 SW6       30.41F
FREDERICKSBRG* PTSUNNY   66  48  52 E9        30.40R
STAFFORD*      FAIR      68  46  46 SE9       30.44S
WARRENTON      PTSUNNY   68  39  34 SE10      30.39S
CULPEPER*      PTSUNNY   68  42  39 SE12      30.40S
MANASSAS*      FAIR      69  45  41 S16       30.40F
LEESBURG*      FAIR      68  43  40 SE12G18   30.40F
WINCHESTER     FAIR      63  41  45 S15G22    30.40S
FRONT ROYAL*   FAIR      64  41  42 SE8       30.37S
LURAY*         FAIR      66  39  37 SE12G20   30.36F
$$

VAZ048-049-060>072-079>083-231800-
CENTRAL AND SOUTH CENTRAL VIRGINIA

CITY           SKY/WX    TMP DP  RH WIND       PRES   REMARKS
RICHMOND       CLOUDY    68  44  42 SE18      30.38F
CHESTERFIELD*  FAIR      68  47  46 SE8       30.37F
PETERSBURG*    FAIR      67  43  40 E12G18    30.37F
HANOVER        FAIR      68  46  45 S12       30.39F
TAPPAHANNOCK*  FAIR      68  47  47 SE12G18   30.42S
QUINTON*       PTSUNNY   67  47  49 SE9G21    30.39F
CHARLOTTSVILLE FAIR      66  44  45 S9        30.36F
GORDONSVILLE*  FAIR      67  44  43 S7        30.37F
ORANGE*        FAIR      64  46  52 SE8G16    30.38F
LOUISA*        PTSUNNY   66  44  45 SE12      30.41F
BUMPASS*       FAIR      65  43  45 E6        30.38F
FARMVILLE*     FAIR      66  45  46 SE5       30.35S
CREWE*         FAIR      65  46  49 SE7       30.35F
FORT PICKETT*  FAIR      66  44  45 SE15      30.35F
CHASE CITY*    FAIR      65  47  53 E3        30.35S
CLARKSVILLE*   FAIR      64  46  52 SE7G16    30.35R
SOUTH HILL*    FAIR      66  49  53 SE7       30.41R
LAWRENCEVILLE* FAIR      66  46  48 E10G16    30.35F
EMPORIA*       PTSUNNY   66  45  45 E12       30.37F
$$

VAZ088>098-231800-
SOUTHEAST VIRGINIA

CITY           SKY/WX    TMP DP  RH WIND       PRES   REMARKS
NORFOLK        FAIR      67  37  33 SE15G24   30.41S
VIRGINIA BEACH PTSUNNY   62  38  40 E15       30.42S
NORFOLK NAVAL  PTSUNNY   67  40  37 E17G23    30.42F
WEST POINT*    FAIR      68  45  44 E15G21    30.43F
SALUDA*        FAIR      62  43  49 E13G18    30.44R
NEWPORT NEWS   FAIR      67  42  40 E16       30.42S
LANGLEY AFB    FAIR      66  39  37 SE16G24   30.42F
FORT EUSTIS    FAIR      68  45  42 SE14G21   30.38F
WILLIAMSBURG*  FAIR      72  45  37 SE7G17    30.41F
HR EXEC AP*    FAIR      69  45  41 E12G17    30.40F
FRANKLIN*      PTSUNNY   67  47  48 SE9G20    30.37F
US460-WAKEFLD  FAIR      68  47  46 E8G20     30.38F
$$

VAZ020-022-025-037-045-231800-
WEST CENTRAL AND SOUTHWEST VIRGINIA

CITY           SKY/WX    TMP DP  RH WIND       PRES   REMARKS
STAUNTON*      FAIR      62  41  46 S12       30.37F
WAYNESBORO*    FAIR      59  44  56 SE7       30.36F
HOT SPRINGS VA PTSUNNY   49  32  50 E14G26    30.31F
LYNCHBURG      FAIR      61  45  55 E8        30.35F
DANVILLE       PTSUNNY   63  50  62 SE8       30.33F
SOUTH BOSTON*  CLOUDY    65  47  51 SE9       30.35R
MARTINSVILLE   CLOUDY    58  47  67 SE9G18    30.33F
ROANOKE        PTSUNNY   59  47  64 SE10G21   30.35S
BLACKSBURG     CLOUDY    56  46  70 SE17G26   30.34S
DUBLIN*        CLOUDY    56  46  69 E13G21    30.30F
MARION*        LGT RAIN  54  45  72 SE12G18   30.27F
HILLSVILLE*    CLOUDY    53  45  74 SE13G24   30.26F
RICHLANDS*     LGT RAIN  51  13  21 SE10G24   30.22R
WISE*          NOT AVBL
ABINGDON*      LGT RAIN  54  45  70 SE10G20   30.21S
$$

MDZ021>025-VAZ099-100-231800-
SOUTHERN MARYLAND AND THE DELMARVA PENINSULA

CITY           SKY/WX    TMP DP  RH WIND       PRES   REMARKS
PATUXENT RIVER PTSUNNY   66  48  52 SE10      30.43F
BAY BRIDGE APT FAIR      61  46  59 NW6       30.43F
LEONARDTOWN    FAIR      64  45  48 E9G16     30.44F
DOVER          FAIR      62  33  33 E10G18    30.45F
GEORGETOWN     FAIR      66  30  26 SE14      30.45F
EASTON         MOSUNNY   68  37  32 SE3       30.46F
CAMBRIDGE      MOSUNNY   66  45  45 SE6G12    30.42F
SALISBURY      FAIR      66  33  29 SE13G20   30.44S
TANGIER        FAIR      64  41  42 SE9       30.44R
OCEAN CITY     FAIR      57  44  62 SE8       30.47S
WALLOPS ISLAND PTSUNNY   63  37  38 SE15      30.46F
ACCOMACK*      FAIR      65  35  32 SE17      30.45R
$$

NCZ012>017-030>032-231800-
NORTH CENTRAL AND EASTERN NORTH CAROLINA

CITY           SKY/WX    TMP DP  RH WIND       PRES   REMARKS
ROANOKE RAPIDS FAIR      68  50  52 SE9       30.35S
RALEIGH        CLOUDY    64  51  62 E10G20    30.33F
ELIZABETH CITY FAIR      69  50  50 E17       30.40F
AHOSKIE*       FAIR      66  48  51 SE10      30.36F
EDENTON*       FAIR      68  54  62 E12G18    30.38S
CURRITUCK*     NOT AVBL
KILL DEVIL HLS FAIR      62  50  64 E7G18     30.38F
MANTEO         FAIR      65  49  57 E12G18    30.39F
CAPE HATTERAS  FAIR      71  54  54 E14       30.37F
TARBORO*       NOT AVBL
GOLDSBORO      NOT AVBL
WASHINGTON     FAIR      69  48  46 SE17      30.34F
GREENVILLE     FAIR      68  46  45 SE17G28   30.35F
NEW BERN       FAIR      68  51  54 SE16G28   30.34S
WILMINGTON     LGT RAIN  66  52  60 E18G26    30.28F
$$

VAZ048-231800-
ELSEWHERE

CITY           SKY/WX    TMP DP  RH WIND       PRES   REMARKS
HARRISBURG PA  FAIR      68  39  34 SE9       30.40F
BALTIMORE      PTSUNNY   66  40  38 E12       30.42F
ANNAPOLIS      FAIR      62  50  64 SE7       30.43F
ANDREWS AFB    FAIR      66  46  48 SE12      30.40F
PHILADELPHIA   FAIR      68  36  30 SE5       30.44F
HENDERSON NC   FAIR      63  44  50 SE9G18    30.34S
GREENSBORO     RAIN      56  51  84 E13       30.27F
ROCKY MOUNT    FAIR      68  47  46 SE12G23   30.35R
$$

VAZ100-231800-
MARINE

STATION/POSITION TIME  TEMP    WIND        PRES    WAVE   SWELL
                       AIR SEA DIR/SP/G            HT/PER HT/PER
                 (UTC) (F)     (DEG/KT/KT) (MB)    (FT/S) (FT/S)
BRANDYWINE LGT   1636   51     150/ 12/ 13 1032.1F
CAPE MAY NJ      1636   57 51  140/ 10/ 13 1031.4R
LEWES DE         1636   57 51  150/  9/ 12 1031.5F
15NM E FENWICK I 1650   48 49  100/  6/  6 1032.3F   1/12   2/12
OCEAN-CITY-INLET 1636   55 53  120/  6/  9 1032.4R
WACHAPREAGUE VA  1636   57 58  110/ 11/ 14 1031.0S
GOOSES REEF MD   1700   56      20/  2/  4 1031.5
COVE POINT MD    1636   57     180/  9/  9 1031.2F
SOLOMONS ISLAND  1636   58 54  130/  9/ 11 1030.2F
BISHOPS HEAD MD  1636   59 57  160/  7/  7 1030.8F
PINEY POINT MD   1636          140/ 14/ 15   N/A
POTOMAC MD       1700   57 55  130/  8/ 10 1032.1    1
CAMBRIDGE MD     1636   64 55              1031.2F
LEWISETTA VA     1636   57 56  110/ 14/ 17 1030.2F
RAPPAHANNOCK LGT 1636          110/ 15/ 16 1031.3R
STINGRAY PT      1700   57 55  150/  8/ 10 1032.6    1/ 3
YORK RVR RNG VA  1636   57     130/ 16/ 19 1030.9S
YORKTOWN VA      1636   61 56  130/ 17/ 21 1030.0R
DOMINION TERM VA 1636   62     120/ 13/ 14 1030.1F
KIPTOPEKE VA     1636      55  130/ 17/ 22   N/A
CAPE HENRY VA    1636   57     110/ 13/ 16   N/A
WILLOUBY STN VA  1636   60     100/ 16/ 18 1029.9F
S CRANEY ISL VA  1636   64     150/ 14/ 19 1029.7F
CAPE HENRY BUOY  1700      53                N/A     2/ 4
1ST LANDING BUOY 1700   56 54  140/ 14/ 16 1030.4    2/ 3
64NM E OF VA BCH 1650   54 50   90/ 10/ 12 1031.0R   3/ 5   2/ 8
DUCK PIER NC     1636   56 54   80/ 14/ 15 1029.1F
44100 DUCK FRF   1645      52                N/A     3/ 5
44056 DUCK FRF   1700      54                N/A     2/ 5   2/13
OREGON INLET NC  1636   60 55   70/ 10/ 12 1028.8F
HATTERAS NC      1636   66 64  110/ 11/ 17 1027.9F
DIAMOND SHLS NC  1700   67 71  100/ 21/ 33 1028.3
$$




USA.gov is the U.S. government's official web portal to all federal, state and local government web resources and services.